www.pogodaiklimat.ru

Погода и климат >> Архив погоды >> Франция >> Уэссан


ПОГОДА в Уэссане

  • Прогноз погоды в Уэссане
  • Монитор погоды в Уэссане

АРХИВ ПОГОДЫ в Уэссане

Время (UTC), дата Ветер
(напр.,м/с)
 
Видим.   Явления Облачность Т
(С)
Тd
(С)
f
(%)
Тe
(С)
Тes
(С)
Комфортность P
(гПа)
Po
(гПа)
Тmin
(С)
Tmax
(С)
R
(мм)
R24
(мм)
S
(см)
01 10.06 З 2-2
{2}
н/о н/о +10.0 +9.1 94 +9 +9 1019.4 1011.1
02 10.06 З 2-2
{3}
н/о н/о +9.9 +8.8 93 +8 +8 1019.0 1010.7
03 10.06 З 2
{5}
20 км 5/4 1000 м
[Sc Ci fib]
+9.7 +8.8 94 +8 +8 1018.3 1010.0 0.2
04 10.06 З 2-3
{3}
н/о н/о +9.7 +8.9 95 +8 +8 1018.0 1009.7
05 10.06 СЗ 2-3
{3}
н/о н/о +10.1 +9.2 94 +8 +8 1017.8 1009.5
06 10.06 СЗ 2
{5}
20 км 6/4 1000 м
[Sc Ci sp]
+11.2 +9.5 89 +10 +11 1017.6 1009.4 +9.4 +14.6
07 10.06 СЗ 3-3
{3}
н/о н/о +12.9 +10.4 85 +12 +12 1017.7 1009.5
08 10.06 СЗ 2-4
{4}
н/о н/о +13.4 +10.4 82 +13 +13 1017.6 1009.4
09 10.06 СЗ 3-4
{5}
н/о н/о +13.4 +9.3 76 +12 +12 1017.4 1009.2
10 10.06 СЗ 2-3
{4}
н/о н/о +13.6 +8.6 72 +13 +13 1017.5 1009.3
11 10.06 С 2-3
{3}
н/о н/о +14.2 +10.0 76 +14 +14 1017.1 1009.0
12 10.06 С 2-3
{4}
20 км 8/8 600 м
[Cu med, cong]
+14.6 +9.4 71 +14 +18 1016.7 1008.6
13 10.06 С 2-3
{4}
н/о н/о +15.3 +9.9 70 +15 +15 1016.6 1008.5
14 10.06 С 2-4
{5}
н/о н/о +13.6 +9.0 74 +13 +13 1016.4 1008.2
15 10.06 С 2
{6}
20 км 9/6 600 м
[Sc Ci sp]
+13.8 +8.8 72 +14 +18 1016.1 1008.0
16 10.06 СЗ 3-4
{4}
н/о н/о +14.4 +9.0 70 +14 +14 1016.1 1008.0
17 10.06 С 3-4
{4}
н/о н/о +13.7 +9.3 75 +13 +13 1015.9 1007.8
18 10.06 С 3
{9}
20 км осадки на расстоянии 9/6 600 м
[Sc Ci sp]
+13.8 +9.4 75 +13 +14 1015.8 1007.7 +11.2 +15.8
19 10.06 С 2-3
{6}
н/о н/о +12.3 +9.3 82 +11 +11 1016.0 1007.8
20 10.06 С 4-5
{5}
н/о н/о +12.0 +8.7 80 +10 +10 1016.2 1008.0
21 10.06 С 5
{12}
17 км слаб. дождь 9/6 300 м
[Cu med, cong As op]
+12.2 +9.9 86 +10 +10 1016.6 1008.4
22 10.06 С 4-6
{7}
н/о н/о +11.8 +9.0 83 +10 +10 1016.5 1008.3 0.4
23 10.06 С 4-6
{8}
н/о н/о +12.0 +10.4 90 +10 +10 1016.2 1008.0 0.2
00 11.06 С 5
{13}
20 км {дождь} 9/6 300 м
[Cu med, cong As op]
+12.1 +10.3 89 +10 +10 1015.7 1007.5 0.6
01 11.06 С 5-7
{7}
н/о н/о +12.0 +9.9 87 +9 +9 1015.3 1007.1
02 11.06 С 5-7
{8}
н/о н/о +12.2 +10.9 92 +10 +10 1014.8 1006.6
03 11.06 СЗ 5-7
{8}
н/о н/о +12.1 +10.3 89 +10 +10 1014.1 1005.9
04 11.06 СЗ 7-9
{9}
н/о н/о +12.3 +11.0 92 +9 +9 1013.3 1005.1
05 11.06 С 7-11
{11}
н/о н/о +12.4 +9.4 82 +9 +9 1013.1 1004.9
06 11.06 С 6-18
{20}
н/о н/о +11.9 +8.6 80 +9 +9 1013.2 1005.0 +10.8 +13.7
07 11.06 С 7-10
{10}
н/о н/о +11.4 +8.6 83 +8 +8 1013.3 1005.1
08 11.06 С 6-9
{10}
н/о н/о +11.1 +8.7 85 +8 +8 1013.1 1004.9 0.2
09 11.06 С 7-11
{11}
н/о н/о +11.4 +8.4 82 +8 +8 1012.5 1004.3 0.2
10 11.06 С 7-10
{11}
н/о {дождь} н/о +11.5 +9.4 87 +8 +8 1012.1 1003.9 0.4
11 11.06 С 8-10
{11}
н/о н/о +11.7 +9.6 87 +8 +8 1011.7 1003.5 0.0
12 11.06 С 7-9
{11}
н/о {дождь} н/о +11.4 +10.3 93 +8 +8 1011.5 1003.3 0.6
13 11.06 С 7-10
{10}
н/о н/о +11.1 +10.8 98 +8 +8 1011.3 1003.1 0.2
14 11.06 С 7-10
{10}
н/о н/о +11.5 +10.6 94 +8 +8 1011.1 1002.9 0.2
15 11.06 С 6-10
{10}
н/о н/о +11.7 +10.9 95 +9 +9 1011.0 1002.8 0.6
16 11.06 С 7-10
{10}
н/о н/о +12.3 +10.7 90 +9 +9 1010.7 1002.6 0.0
17 11.06 С 7-10
{11}
н/о н/о +11.6 +10.7 94 +8 +8 1011.1 1002.9 0.4
18 11.06 С 7-21
{21}
5000 м слаб. дождь 10/10 2000 м
[Frnb]
+12.0 +11.1 94 +9 +9 1011.4 1003.2 +10.3 +12.6 2
19 11.06 С 7-9
{11}
н/о н/о +12.2 +10.9 92 +9 +9 1011.8 1003.6 0.0
20 11.06 С 7-9
{10}
н/о н/о +12.2 +10.9 92 +9 +9 1012.4 1004.2 0.0
21 11.06 С 6
{17}
18 км 9/9 300 м
[Cu Sc]
+12.2 +10.9 92 +10 +10 1012.8 1004.6 0.0
22 11.06 СВ 5-7
{7}
н/о н/о +11.6 +10.5 93 +9 +9 1012.7 1004.5
23 11.06 С 5-7
{7}
н/о н/о +11.9 +10.3 90 +9 +9 1012.7 1004.5
00 12.06 С 4
{12}
15 км 9/9 300 м
[Cu Sc]
+11.8 +10.4 91 +10 +10 1012.3 1004.1
01 12.06 С 4-6
{6}
н/о н/о +11.8 +10.5 92 +9 +9 1012.0 1003.8
02 12.06 С 4-6
{6}
н/о н/о +11.5 +10.6 94 +9 +9 1011.4 1003.2
03 12.06 С 4-6
{6}
18 км 10/10 1000 м
[Sc]
+11.6 +10.3 92 +9 +9 1011.0 1002.8
04 12.06 С 4-6
{6}
н/о н/о +11.1 +9.8 92 +9 +9 1010.9 1002.7
05 12.06 С 4-6
{6}
н/о н/о +11.0 +10.4 96 +9 +9 1010.7 1002.5
06 12.06 С 4
{10}
15 км осадки на расстоянии 10/10 300 м
[Cu Sc]
+10.6 +9.7 94 +8 +8 1010.6 1002.4 +10.6 +12.3 0.2
07 12.06 С 3-4
{5}
н/о н/о +11.3 +10.2 93 +10 +10 1010.6 1002.4
08 12.06 С 3-5
{5}
н/о н/о +11.5 +10.1 91 +10 +10 1010.7 1002.5
09 12.06 С 3
{9}
18 км 9/9 300 м
[Cu Sc]
+11.8 +10.5 92 +10 +11 1010.4 1002.2
10 12.06 С 3-4
{4}
н/о н/о +11.6 +10.7 94 +10 +10 1010.6 1002.4
11 12.06 С 2-3
{4}
н/о н/о +11.7 +10.9 95 +10 +10 1010.6 1002.4
12 12.06 С 2-3
{4}
н/о н/о +13.4 +10.9 85 +13 +13 1010.3 1002.2
13 12.06 С 2-3
{4}
н/о н/о +13.2 +10.4 83 +13 +13 1010.1 1002.0
14 12.06 С 3
{6}
н/о н/о +13.2 +10.7 85 +12 +12 1010.1 1002.0
15 12.06 С 2 18 км 8/8 700 м
[Cu Sc Ci fib]
+13.7 +10.9 83 +13 +16 1010.2 1002.1
16 12.06 С 2-2
{3}
н/о н/о +13.0 +10.0 82 +13 +13 1010.3 1002.2
17 12.06 С 2-2
{2}
н/о н/о +12.3 +10.0 86 +12 +12 1010.0 1001.9
18 12.06 С 2
{4}
25 км 4/1 600 м
[Cu med, cong Ac cuf Cs]
+12.5 +10.0 85 +12 +14 1010.0 1001.9 +10.6 +14.6
19 12.06 С 1-2
{3}
н/о н/о +13.7 +10.5 81 +14 +14 1010.1 1002.0
20 12.06 С 1-1
{2}
н/о н/о +11.6 +9.3 86 +12 +12 1010.3 1002.1
21 12.06 З 1
{2}
20 км 3/1 600 м
[Cu med, cong Ac cuf]
+10.4 +8.8 90 +10 +10 1010.4 1002.2
22 12.06 СЗ 2-2
{2}
н/о н/о +9.8 +8.7 93 +8 +8 1010.3 1002.1
23 12.06 СЗ 2-2
{2}
н/о н/о +9.9 +8.8 93 +9 +9 1010.4 1002.2
00 13.06 СЗ 3-2
{3}
18 км 10/0
[Ac cuf]
+10.2 +9.1 93 +8 +8 1010.2 1002.0
01 13.06 З 1-2
{2}
н/о н/о +9.9 +9.0 94 +9 +9 1009.8 1001.6
02 13.06 З 2-2
{2}
н/о н/о +10.2 +9.3 94 +9 +9 1009.3 1001.1
03 13.06 З 2-2
{3}
18 км 10/10 1000 м
[Sc]
+10.4 +9.8 96 +9 +9 1008.7 1000.5
04 13.06 З 2-3
{3}
н/о н/о +10.5 +9.9 96 +9 +9 1008.5 1000.3
05 13.06 З 3-3
{3}
н/о н/о +9.7 +9.2 97 +8 +8 1008.6 1000.4
06 13.06 З 3
{6}
18 км 8/3 600 м
[Cu med, cong Ac cuf]
+11.1 +10.2 94 +9 +10 1008.6 1000.4 +9.5 +13.7
07 13.06 З 3-4
{4}
н/о н/о +11.8 +10.0 89 +10 +10 1008.9 1000.8
08 13.06 З 4-5
{5}
н/о н/о +12.7 +9.7 82 +11 +11 1008.9 1000.8
09 13.06 З 3
{10}
18 км 9/8 600 м
[Cu med, cong Ac cuf Cs]
+13.6 +10.4 81 +12 +14 1009.3 1001.2
10 13.06 ЮЗ 4-5
{5}
н/о н/о +13.9 +10.1 78 +13 +13 1009.2 1001.1
11 13.06 ЮЗ 4-6
{6}
н/о н/о +14.8 +10.8 77 +14 +14 1009.3 1001.2
12 13.06 ЮЗ 4
{11}
18 км 9/8 600 м
[Cu med, cong Ac cuf Cs]
+15.6 +11.2 75 +15 +16 1009.4 1001.4
13 13.06 ЮЗ 4-6
{6}
н/о н/о +15.7 +11.5 76 +15 +15 1009.4 1001.4
14 13.06 ЮЗ 4-6
{6}
н/о н/о +15.7 +11.9 78 +15 +15 1009.5 1001.5
15 13.06 ЮЗ 4
{12}
25 км 9/4 600 м
[Cu med, cong Ac cuf]
+15.8 +12.4 80 +15 +17 1009.3 1001.3
16 13.06 ЮЗ 4-6
{6}
н/о н/о +14.6 +11.4 81 +13 +13 1009.8 1001.7
17 13.06 ЮЗ 4-5
{6}
н/о н/о +13.9 +11.4 85 +13 +13 1009.8 1001.7
18 13.06 З 3
{10}
25 км 10/10 600 м
[Cu Sc]
+13.5 +11.9 90 +12 +12 1010.0 1001.9 +11.1 +16.9
19 13.06 ЮЗ 3-4
{5}
н/о н/о +12.8 +12.2 96 +11 +11 1010.1 1002.0 0.4
20 13.06 ЮЗ 3-4
{5}
н/о н/о +12.6 +11.7 94 +11 +11 1010.2 1002.1
21 13.06 ЮЗ 3-4
{4}
20 км {морось} 10/9 600 м
[Sc]
+12.6 +12.0 96 +11 +11 1010.7 1002.6 0.4
22 13.06 ЮЗ 3-4
{4}
н/о н/о +12.5 +12.0 97 +11 +11 1010.6 1002.5
23 13.06 ЮЗ 3-5
{5}
н/о н/о +12.4 +11.8 96 +11 +11 1010.5 1002.4
00 14.06 ЮЗ 3-4
{5}
15 км 10/9 600 м
[Sc]
+12.4 +12.1 98 +11 +11 1010.4 1002.3
01 14.06 ЮЗ 4-5
{5}
н/о н/о +12.5 +12.2 98 +11 +11 1009.9 1001.8
02 14.06 ЮЗ 4-5
{6}
н/о н/о +12.4 +11.8 96 +10 +10 1009.8 1001.7 0.2
03 14.06 ЮЗ 3-5
{5}
15 км слаб. морось 10/10 600 м
[Sc]
+11.5 +10.9 96 +10 +10 1009.8 1001.6 0.4
04 14.06 ЮЗ 3-4
{5}
н/о н/о +11.7 +11.4 98 +10 +10 1009.7 1001.6 0.0
05 14.06 ЮЗ 3-5
{5}
н/о н/о +12.1 +10.8 92 +10 +10 1010.1 1002.0 0.0
06 14.06 ЮЗ 3
{9}
12 км {морось} 4/4 1000 м
[Sc]
+12.3 +11.2 93 +11 +11 1010.2 1002.1 +11.4 +13.4 0.0
07 14.06 ЮЗ 4-6
{6}
н/о н/о +13.9 +11.9 88 +13 +13 1010.3 1002.2
08 14.06 ЮЗ 4-6
{6}
н/о н/о +13.9 +12.1 89 +13 +13 1010.8 1002.7
09 14.06 З 4-5
{6}
н/о н/о +12.9 +11.3 90 +11 +11 1011.3 1003.2
10 14.06 ЮЗ 3-4
{6}
н/о н/о +13.8 +12.4 91 +13 +13 1011.5 1003.4 0.4
11 14.06 ЮЗ 3-4
{5}
н/о н/о +14.4 +12.1 86 +14 +14 1011.5 1003.4
12 14.06 ЮЗ 3
{9}
8000 м 9/9 600 м
[Cu Sc]
+15.6 +12.3 81 +15 +16 1011.7 1003.6 0.4
13 14.06 Ю 4-6
{6}
н/о н/о +15.4 +11.8 79 +14 +14 1011.6 1003.5
14 14.06 Ю 4-5
{6}
н/о н/о +15.2 +12.0 81 +14 +14 1011.5 1003.4
15 14.06 Ю 4
{12}
18 км 9/9 600 м
[Cu Sc]
+15.5 +12.4 82 +14 +15 1011.5 1003.4
16 14.06 ЮЗ 4-6
{6}
н/о н/о +16.0 +12.0 77 +15 +15 1011.5 1003.5
17 14.06 Ю 5-6
{6}
н/о н/о +14.8 +12.3 85 +13 +13 1011.5 1003.4
18 14.06 ЮЗ 5
{12}
18 км 3/3 1000 м
[Cu Sc]
+14.5 +11.6 83 +13 +14 1011.5 1003.4 +12.2 +16.9
19 14.06 ЮЗ 4-5
{7}
н/о н/о +13.9 +11.2 84 +12 +12 1011.5 1003.4
20 14.06 ЮЗ 3-5
{5}
н/о н/о +12.3 +10.5 89 +11 +11 1011.5 1003.4
21 14.06 ЮЗ 4
{9}
20 км 9/9 1000 м
[Cu Sc]
+12.5 +11.4 93 +11 +11 1011.6 1003.5
22 14.06 ЮЗ 4-5
{5}
н/о н/о +12.5 +11.1 91 +11 +11 1011.9 1003.8
23 14.06 Ю 4-5
{5}
н/о н/о +12.6 +11.8 95 +11 +11 1011.7 1003.6
00 15.06 Ю 4
{11}
20 км 9/9 1000 м
[Cu Sc]
+12.8 +12.0 95 +11 +11 1011.6 1003.5
01 15.06 ЮЗ 5-6
{6}
н/о н/о +12.5 +11.6 94 +10 +10 1011.3 1003.2 0.2
02 15.06 Ю 5-7
{7}
н/о н/о +12.5 +11.4 93 +10 +10 1011.0 1002.9
03 15.06 Ю 6-8
{8}
12 км слаб. дождь 10/10 300 м
[Frnb]
+12.3 +11.4 94 +10 +10 1010.6 1002.5 0.4
04 15.06 ЮЗ 6-8
{9}
н/о н/о +12.3 +12.1 99 +10 +10 1010.6 1002.5 0.8
05 15.06 ЮЗ 6-9
{9}
н/о н/о +12.6 +12.4 99 +10 +10 1010.6 1002.5 0.0
06 15.06 ЮЗ 4
{14}
н/о н/о +12.8 +12.6 99 +11 +11 1010.9 1002.8 +11.9 +14.7 0.8
07 15.06 ЮЗ 2-3
{6}
н/о н/о +12.0 +11.7 98 +11 +11 1011.7 1003.5 4
08 15.06 ЮЗ 2-3
{3}
н/о н/о +13.2 +12.7 97 +13 +13 1012.1 1004.0 0.4
09 15.06 ЮЗ 3-4
{4}
10 км в посл. час дождь 9/9 300 м
[Frnb]
+13.8 +13.2 96 +13 +14 1012.3 1004.2 4
10 15.06 ЮЗ 3-5
{5}
н/о н/о +14.4 +14.1 98 +13 +13 1012.4 1004.3 0.4
11 15.06 ЮЗ 4-5
{5}
н/о н/о +15.9 +15.3 96 +15 +15 1012.4 1004.4 0.2
12 15.06 ЮЗ 4-5
{7}
н/о н/о +15.8 +14.2 90 +15 +15 1012.8 1004.8 0.6
13 15.06 ЮЗ 4-6
{6}
н/о н/о +15.9 +13.6 86 +15 +15 1013.3 1005.2
14 15.06 ЮЗ 4-5
{6}
н/о н/о +14.9 +13.1 89 +14 +14 1013.7 1005.6
15 15.06 ЮЗ 4-5
{5}
н/о н/о +14.9 +13.9 94 +14 +14 1014.1 1006.0
16 15.06 ЮЗ 4-5
{5}
н/о н/о +14.3 +13.8 97 +13 +13 1014.1 1006.0
17 15.06 ЮЗ 4-6
{6}
н/о н/о +14.8 +13.7 93 +14 +14 1014.1 1006.0
18 15.06 ЮЗ 4
{12}
20 км 9/9 600 м
[Sc diur, vesp]
+14.5 +13.4 93 +13 +13 1014.6 1006.5 +12.0 +16.3
19 15.06 ЮЗ 4-6
{6}
н/о н/о +14.0 +12.9 93 +13 +13 1014.8 1006.7
20 15.06 ЮЗ 4-5
{6}
н/о н/о +13.6 +12.8 95 +12 +12 1015.1 1007.0
21 15.06 ЮЗ 4
{11}
6000 м осадки на расстоянии 10/10 300 м
[Frnb]
+13.5 +13.2 98 +12 +12 1015.5 1007.4 0.2
22 15.06 ЮЗ 5-7
{7}
н/о н/о +13.5 +13.3 99 +12 +12 1015.6 1007.5
23 15.06 ЮЗ 4-6
{6}
н/о н/о +12.9 +12.6 98 +11 +11 1016.1 1007.9
00 16.06 ЮЗ 4-6
{6}
н/о н/о +13.2 +12.9 98 +11 +11 1016.3 1008.1
01 16.06 ЮЗ 4-7
{7}
н/о н/о +13.5 +13.3 99 +12 +12 1016.1 1008.0
02 16.06 0
{7}
н/о н/о +13.6 +13.4 99 1016.1 1008.0
03 16.06 ЮЗ 5-6
{7}
12 км 10/9 600 м
[Frnb]
+13.5 +13.3 99 +12 +12 1016.0 1007.9
04 16.06 ЮЗ 5-6
{7}
н/о н/о +13.3 +13.0 98 +11 +11 1016.2 1008.0
05 16.06 ЮЗ 4-6
{7}
н/о н/о +13.4 +13.1 98 +12 +12 1016.4 1008.3
06 16.06 ЮЗ 4
{11}
12 км 9/3 1000 м
[Sc Ac trans]
+13.7 +13.4 98 +12 +12 1016.7 1008.6 +12.9 +14.4
07 16.06 ЮЗ 5-6
{7}
н/о н/о +14.2 +13.7 97 +12 +12 1017.1 1009.0
08 16.06 ЮЗ 5-6
{7}
н/о н/о +15.3 +13.3 88 +14 +14 1017.5 1009.4
09 16.06 ЮЗ 4-6
{6}
10 км 10/10 1000 м
[Sc]
+14.8 +13.7 93 +13 +13 1017.9 1009.8
10 16.06 ЮЗ 5-6
{6}
н/о н/о +15.2 +13.9 92 +14 +14 1018.1 1010.0
11 16.06 Ю 5-7
{7}
н/о н/о +15.9 +14.1 89 +15 +15 1018.5 1010.4
12 16.06 Ю 5
{14}
8000 м 8/8 600 м
[Sc diur, vesp Ci fib]
+17.0 +14.5 85 +16 +18 1018.7 1010.6
13 16.06 Ю 5-7
{8}
н/о н/о +15.8 +13.8 88 +15 +15 1018.8 1010.7
14 16.06 Ю 5-7
{7}
н/о н/о +16.0 +14.2 89 +15 +15 1018.7 1010.6
15 16.06 Ю 5-6
{7}
10 км 10/10 600 м
[Sc]
+15.3 +13.7 90 +14 +14 1018.7 1010.6
16 16.06 Ю 5-6
{6}
н/о н/о +15.0 +13.9 93 +14 +14 1018.6 1010.5
17 16.06 Ю 4-5
{6}
н/о н/о +14.7 +13.7 94 +13 +13 1018.4 1010.3
18 16.06 Ю 4
{11}
10 км 9/9 600 м
[Sc]
+14.6 +13.6 94 +13 +13 1018.4 1010.3 +13.7 +17.2
19 16.06 Ю 4-5
{6}
н/о н/о +14.2 +13.4 95 +13 +13 1018.7 1010.6
20 16.06 Ю 4-5
{5}
н/о н/о +13.7 +13.1 96 +12 +12 1018.8 1010.6
21 16.06 Ю 4-4
{5}
10 км 10/10 800 м
[Sc]
+13.5 +13.2 98 +12 +12 1019.2 1011.0
22 16.06 Ю 4-5
{6}
н/о н/о +13.0 +12.8 99 +11 +11 1019.2 1011.0
23 16.06 Ю 4-5
{5}
н/о н/о +12.8 +12.8 100 +11 +11 1019.0 1010.8

 

Местоположение метеостанции Уэссан (Франция): широта 48.48 долгота -5.05 высота над уровнем моря 68 м.

В архиве по умолчанию представлена погода в Уэссане за последнюю неделю. Архивные данные за месяц целиком и за предыдущие месяцы, начиная с января 2011 года, Вы можете получить, выбрав интересующий диапазон дат из раскрывающегося списка и нажав кнопку "Ввод!".


*Определитесь, кто Вы:
робот инопланетянин человек

Внимание! Время в таблицах - всемирное. Для получения местного времени необходимо прибавить поправку, которая равна 1 ч.

Смотрите также архив погоды в соседних городах и на ближайших метеорологических станциях:

Погода в Плудальмезо (Франция) (30 км)
Погода в Бресте (Франция) (47 км)
Погода на Пуэнт-дю-Ра (Франция) (55 км)
Погода в Бриньоган-Пляже (Франция) (57 км)
Погода в Ландивизио (Франция) (66 км)
Погода в Иль-де-Ба (Франция) (81 км)
Погода в Кемпере (Франция) (86 км)
Погода в Пенмарше (Франция) (91 км)
Погода в Ланьоне (Франция) (120 км)
Погода в Перрос-Гиреке (Франция) (122 км)

Пояснения к столбцам:

Ветер - указаны скорость ветра в м/с - средняя за 10 мин, порывы в срок и между сроками (в фигурных скобках) и направление, откуда дует ветер: С - северный, СВ - северо-восточный, В - восточный, ЮВ - юго-восточный, Ю - южный, ЮЗ - юго-западный, З - западный, СЗ - северо-западный.
Видимость - горизонтальная дальность видимости в метрах или километрах. При видимости от 1 до 10 км при отсутствии осадков обычно наблюдается дымка, при ухудшении видимости до 1 км и менее - туман. В сухую погоду видимость может ухудшаться дымом, пылью или мглою.
Явления - указаны атмосферные явления, наблюдавшиеся в срок или в последний час перед сроком; фигурными скобками обозначены явления, наблюдавшиеся между сроками (за 1-3 часа до срока); квадратными скобками обозначены град или гололедные отложения с указанием их диаметра в мм.
Облачность - указаны через наклонную черту общая и нижняя облачность в баллах и высота нижней границы облаков в метрах; квадратными скобками обозначены формы облаков: Ci - перистые, Cs - перисто-слоистые, Cc - перисто-кучевые, Ac - высококучевые, As - высокослоистые, Sc - слоисто-кучевые, Ns - слоисто-дождевые, Cu - кучевые, Cb - кучево-дождевые. Подробнее классификацию облаков см. в Атласе облаков (PDF).
T - Температура воздуха - температура, измеренная на высоте 2 м над землей.
Td - Температура точки росы - температура, при понижении до которой содержащийся в воздухе водяной пар достигнет насыщения.
f - Относительная влажность воздуха - влажноcть воздуха, измеренная на высоте 2 м над землей.
Te - Эффективная температура - температура, которую ощущает одетый по сезону человек в тени. Характеристика душности погоды. При расчете учитывается влияние влажности воздуха и скорости ветра на теплоощущения человека.
Tes - Эффективная температура на солнце - температура, которую ощущает человек, с поправкой на солнечный нагрев. Характеристика знойности погоды. Зависит от высоты солнца над горизонтом, облачности и скорости ветра. Ночью, в пасмурную погоду, а также при ветре 12 м/с и более поправка равна нулю.
P - Атмосферное давление - приведенное к уровню моря атмосферное давление.
Po - Атмосферное давление - измеренное на уровне метеостанции атмосферное давление.
Tmin - Минимальная температура - минимум температуры воздуха на высоте 2 м над землей.
Tmax - Максимальная температура - максимум температуры воздуха на высоте 2 м над землей.
R - Количество осадков - Количество выпавших осадков за период времени, мм. При наведении курсора мыши на число - период времени, за который выпало указанное количество осадков.
R24 - Количество осадков - Количество выпавших осадков за 24 часа, мм.
S - Снежный покров - Высота снежного покрова, см. При наведении курсора мыши на число - состояние снежного покрова и степень покрытия местности в баллах.